This is the latest recevied weather packets stored in our database for station/object K4AMF. If no packets are shown the sender has not sent any weather packets the latest 10 day(s).
| Time | Temp. | Humidity | Pressure | Rain* | Wind** | Luminosity | Snow |
|---|---|---|---|---|---|---|---|
| 1788136208 | 81° F | 85% | 764.1 mmHg | 0 in | - | 0 W/m² | - |
| 1788135906 | 81° F | 86% | 764.4 mmHg | 0 in | - | 0 W/m² | - |
| 1788135602 | 81° F | 86% | 764.2 mmHg | 0 in | - | 0 W/m² | - |
| 1788135297 | 82° F | 86% | 764.1 mmHg | 0 in | - | 0 W/m² | - |
| 1788134994 | 82° F | 86% | 764.1 mmHg | 0 in | - | 0 W/m² | - |
| 1788134689 | 82° F | 86% | 764.3 mmHg | 0 in | - | 0 W/m² | - |
| 1788134387 | 82° F | 86% | 764.1 mmHg | 0 in | - | 0 W/m² | - |
| 1788134083 | 82° F | 86% | 764.3 mmHg | 0 in | - | 0 W/m² | - |
| 1788133778 | 82° F | 86% | 764.2 mmHg | 0 in | - | 2 W/m² | - |
| 1788133473 | 82° F | 85% | 764.2 mmHg | 0 in | - | 4 W/m² | - |
| 1788133169 | 82° F | 85% | 764.2 mmHg | 0 in | - | 7 W/m² | - |
| 1788132864 | 83° F | 85% | 764.1 mmHg | 0 in | - | 11 W/m² | - |
| 1788132560 | 83° F | 85% | 764.1 mmHg | 0 in | - | 15 W/m² | - |
| 1788132256 | 83° F | 85% | 764.1 mmHg | 0 in | - | 19 W/m² | - |
| 1788131952 | 83° F | 85% | 764 mmHg | 0 in | - | 23 W/m² | - |
| 1788131647 | 83° F | 85% | 764.1 mmHg | 0 in | - | 25 W/m² | - |
| 1788131346 | 83° F | 84% | 763.9 mmHg | 0 in | - | 28 W/m² | - |
| 1788131042 | 84° F | 84% | 764.1 mmHg | 0 in | - | 33 W/m² | - |
| 1788130741 | 84° F | 84% | 763.9 mmHg | 0 in | - | 40 W/m² | - |
| 1788130436 | 84° F | 84% | 763.8 mmHg | 0 in | - | 41 W/m² | - |
| 1788130131 | 84° F | 84% | 763.9 mmHg | 0 in | - | 49 W/m² | - |
| 1788129830 | 84° F | 84% | 763.9 mmHg | 0 in | - | 52 W/m² | - |
| 1788129527 | 84° F | 85% | 763.9 mmHg | 0 in | - | 55 W/m² | - |
| 1788129223 | 84° F | 85% | 763.9 mmHg | 0 in | - | 59 W/m² | - |
| 1788128922 | 84° F | 84% | 763.9 mmHg | 0 in | - | 64 W/m² | - |
* Rain latest hour (hover to see other rain measurements)
** Current wind speed in m/s (hover to see current wind gust speed)